Location: Overspoor
(51.4747°N, 5.6641°E)
Time: 06:54:26
(UTC+02:00)

N. Korean satellite - Pass Details

Date: 19 January 2022
Orbit: 438 x 477 km, 97.3° (Epoch: 23 May)

Event Time Altitude Azimuth Distance (km) Brightness Sun altitude
Rises 05:33:26 0° 18° (NNE) 2,614 10.5 -27.3°
Reaches altitude 10° 05:35:36 10° 26° (NNE) 1,732 9.6 -27.0°
Maximum altitude 05:39:10 42° 98° (E) 745 7.9 -26.4°
Enters shadow 05:40:00 36° 133° (SE) 829 8.0 -26.3°
Exits shadow 05:45:08 -1° 178° (S) 2,707 10.4 -25.5°
